Flag for Austria Weather past 2 weeks in Saalfelden am Steinernen Meer, Salzburg, Austria

43 °F

Partly cloudy.

Feels Like: 41 °F
Forecast: 40 / 46 °F
Wind: 3 mph from East

Location: Salzburg-Flughafen

Current Time: Nov 29, 2015 at 11:17:44 PM

Latest Report: Nov 29, 2015 at 10:20 PM

Visibility: N/A

Pressure: 30.12 "Hg (27.52 "Hg at 738m altitude)

Humidity: 81%

Dew point: 37 °F

Location of Saalfelden am Steinernen MeerLocation

Historic Weather in Saalfelden am Steinernen Meer — Graph


Saalfelden am Steinernen Meer temperature yesterday

Maximum temperature yesterday: 39 °F (at 11:50 AM)
Minimum temperature yesterday: 34 °F (at 12:50 AM)
Average temperature yesterday: 36 °F

Past Weeks' High & Low Weather Summary

High72 °F (Nov 15, 1:50 PM)100% (Nov 18, 11:50 PM)30.30 "Hg (Nov 18, 11:50 PM)
Low25 °F (Nov 24, 12:20 AM)28% (Nov 15, 9:20 PM)29.42 "Hg (Nov 21, 3:20 PM)
Average41 °F77%29.96 "Hg
* Reported Nov 14 9:20 PM — Nov 29 9:50 PM, Saalfelden am Steinernen Meer, Weather by CustomWeather, © 2015

Note: Actual official high and low records may vary slightly from our data, if they occured in-between our weather recording intervals... More about our weather records


Saalfelden am Steinernen Meer weather history for previous 24 hours

Time TempWeatherWind HumidityBarometerVisibility
9:50 PM
Sun, Nov 29
41 °FPartly cloudy.7 mph87%30.15 "HgN/A
9:20 PM41 °FLight rain. Partly cloudy.9 mph87%30.15 "HgN/A
8:50 PM39 °FLight rain. Partly cloudy.5 mph93%30.15 "HgN/A
8:20 PM39 °FPassing clouds.9 mph93%30.12 "HgN/A
7:50 PM39 °FPassing clouds.3 mph93%30.12 "HgN/A
7:20 PM39 °FPassing clouds.8 mph93%30.12 "HgN/A
6:50 PM39 °FPartly cloudy.12 mph93%30.12 "HgN/A
6:20 PM39 °FLight rain. Partly cloudy.7 mph93%30.12 "HgN/A
5:50 PM37 °FLight rain. Partly cloudy.9 mph100%30.15 "HgN/A
5:20 PM37 °FLight rain. Partly cloudy.8 mph93%30.15 "HgN/A
4:50 PM37 °FLight rain. Partly cloudy.10 mph93%30.12 "HgN/A
4:20 PM37 °FLight rain. Partly cloudy.9 mph93%30.12 "HgN/A
3:50 PM41 °FRain. Broken clouds.8 mph87%30.12 "HgN/A
3:20 PM41 °FLight rain. Broken clouds.8 mph87%30.12 "HgN/A
2:50 PM43 °FLight rain. Broken clouds.6 mph81%30.12 "HgN/A
2:20 PM39 °FLight rain. Broken clouds.5 mph75%30.12 "HgN/A
1:50 PM41 °FLight rain. Broken clouds.6 mph66%30.09 "HgN/A
1:20 PM41 °FPartly sunny.5 mph66%30.09 "HgN/A
12:50 PM41 °FPartly sunny.6 mph66%30.09 "HgN/A
12:20 PM39 °FPartly sunny.9 mph70%30.09 "HgN/A
11:50 AM39 °FPartly sunny.10 mph65%30.09 "HgN/A
11:20 AM39 °FPartly sunny.9 mph70%30.12 "HgN/A
10:20 AM37 °FPartly sunny.12 mph70%30.12 "HgN/A
9:50 AM36 °FPartly sunny.14 mph70%30.12 "HgN/A
9:20 AM36 °FBroken clouds.14 mph70%30.12 "HgN/A
8:50 AM36 °FPartly sunny.14 mph70%30.12 "HgN/A
8:20 AM34 °FPartly sunny.13 mph75%30.12 "HgN/A
7:50 AM34 °FPartly sunny.10 mph81%30.15 "HgN/A
7:20 AM32 °FPassing clouds.12 mph87%30.15 "HgN/A
5:50 AM32 °FPassing clouds.9 mph87%30.15 "HgN/A
5:20 AM30 °FPartly cloudy.12 mph93%30.15 "HgN/A
4:50 AM30 °FPassing clouds.10 mph93%30.15 "HgN/A
4:20 AM30 °FPassing clouds.9 mph100%30.15 "HgN/A
3:50 AM30 °FPassing clouds.7 mph100%30.15 "HgN/A
3:20 AM28 °FChilly.2 mph100%30.18 "HgN/A
2:50 AM28 °FChilly.3 mph100%30.18 "HgN/A
2:20 AM28 °FPassing clouds.2 mph100%30.18 "HgN/A
1:50 AM28 °FPassing clouds.3 mph100%30.18 "HgN/A
12:50 AM32 °FChilly.3 mph93%30.18 "HgN/A
12:20 AM36 °FPassing clouds.3 mph75%30.18 "HgN/A
11:50 PM
Sat, Nov 28
36 °FPassing clouds.9 mph75%30.18 "HgN/A
Weather by CustomWeather, © 2015

See weather overviewHow to use our weather pages